Regional Weather Roundup
Issued by NWS Charleston, WV

Home | Current Version | Previous Version | Graphics & Text | Print | Product List | Glossary On
Versions: 1 2 3 4 5 6 7 8 9 10 11 12 13 14 15 16 17 18 19 20 21 22 23 24 25 26 27 28 29 30 31 32 33 34 35 36 37 38 39 40 41 42 43 44 45 46 47 48 49 50
000
ASUS41 KRLX 021610
RWRRLX
West Virginia Regional Weather Roundup
National Weather Service Charleston WV
1200 PM EDT SAT MAY 02 2015

Note: "fair" indicates few or no clouds below 12,000 feet with no
significant weather and/or obstructions to visibility.

WVZ003-021700-
Northern Panhandle of West Virginia

CITY           SKY/WX    TMP DP  RH WIND       PRES   REMARKS
WHEELING       MOSUNNY   65  42  43 CALM      30.09F
$$

WVZ009-021700-
Northwest West Virginia

CITY           SKY/WX    TMP DP  RH WIND       PRES   REMARKS
PARKERSBURG    SUNNY     67  39  35 E3        30.14F
$$

WVZ006-021700-
Western West Virginia

CITY           SKY/WX    TMP DP  RH WIND       PRES   REMARKS
HUNTINGTON     MOSUNNY   66  45  46 VRB5      30.14S
$$

WVZ015-021700-
West Central West Virginia

CITY           SKY/WX    TMP DP  RH WIND       PRES   REMARKS
CHARLESTON     MOSUNNY   67  40  37 VRB3      30.13F
$$

WVZ022-031-021700-
North Central West Virginia

CITY           SKY/WX    TMP DP  RH WIND       PRES   REMARKS
CLARKSBURG     MOSUNNY   65  44  46 VRB5      30.10F
MORGANTOWN     SUNNY     67  42  40 VRB3      30.11S
$$

WVZ025-035-042-045-021700-
Southern West Virginia

CITY           SKY/WX    TMP DP  RH WIND       PRES   REMARKS
BECKLEY        SUNNY     61  38  42 NW7       30.14F
LOGAN            N/A     63  45  51 SW5       30.11F
BLUEFIELD      MOSUNNY   62  34  35 NE9       30.15S
LEWISBURG      PTSUNNY   62  41  45 N6        30.11F
$$

WVZ047-021700-
Northern Mountains of West Virginia

CITY           SKY/WX    TMP DP  RH WIND       PRES   REMARKS
ELKINS         CLOUDY    61  37  41 N8        30.11F
$$

WVZ052-021700-
Eastern Panhandle of West Virginia

CITY           SKY/WX    TMP DP  RH WIND       PRES   REMARKS
MARTINSBURG    SUNNY     68  41  37 NW6       30.04F
PETERSBURG     MOSUNNY   68  37  31 E3        30.07F
$$


USA.gov is the U.S. government's official web portal to all federal, state and local government web resources and services.